Date String (YYYY-MM-DD hh:mm:ss) UTC,Instrument flags,Ambient pressure (hPa),Sample flow (lpm),Bypass flow (lpm),Sample temperature (°C),Ambient temperature (°C),ASC tube jacket temperature (°C),LED temperature (°C),Box temperature (°C),Sample RH (%),Span deviation,Mass concentration (μg/m³),Mass concentration (μg/m³),Mass concentration (μg/m³)
DateTimeUTC,F1_M11,P_M11,Q1_M11,Q2_M11,T1_M11,T2_M11,T3_M11,T4_M11,T5_M11,U1_M11,ZSPAN_M11,X0_M11,X2_M11,X1_M11
2022-02-10 14:00:00,,0826.0,5.00,0.00,22.3,21.7,00.0,31.2,24.1,10.7,0000.0,0002.55,0001.38,0001.06
2022-02-10 14:01:00,,0826.0,5.00,0.00,22.3,21.7,00.0,31.2,24.1,10.5,0000.0,0002.84,0001.36,0001.07
2022-02-10 14:02:00,,0826.0,5.00,0.00,22.3,21.7,00.0,31.2,24.1,10.2,0000.0,0002.85,0001.35,0001.06
2022-02-10 14:03:00,,0825.9,5.00,0.00,22.3,21.7,00.0,31.2,24.0,10.2,0000.0,0002.78,0001.32,0001.05
2022-02-10 14:04:00,,0825.8,5.01,0.00,22.2,21.6,00.0,31.2,24.0,10.2,0000.0,0002.74,0001.30,0001.04
2022-02-10 14:05:00,,0825.9,4.99,0.00,22.2,21.6,00.0,31.2,24.0,10.4,0000.0,0002.79,0001.31,0001.04
2022-02-10 14:06:00,,0825.9,5.01,0.00,22.2,21.6,00.0,31.2,24.0,10.4,0000.0,0002.76,0001.29,0001.03
2022-02-10 14:07:00,,0825.9,5.00,0.00,22.2,21.6,00.0,31.2,24.0,10.4,0000.0,0002.62,0001.28,0001.03
2022-02-10 14:08:00,,0825.9,5.01,0.00,22.2,21.6,00.0,31.2,24.0,10.3,0000.0,0002.63,0001.29,0001.03
2022-02-10 14:09:00,,0825.8,5.00,0.00,22.2,21.6,00.0,31.2,24.0,10.3,0000.0,0002.51,0001.26,0001.02
2022-02-10 14:10:00,,0825.8,4.99,0.00,22.2,21.6,00.0,31.2,24.0,10.4,0000.0,0002.44,0001.23,0001.02
2022-02-10 14:11:00,,0825.7,5.02,0.00,22.2,21.6,00.0,31.2,24.0,10.4,0000.0,0002.20,0001.21,0001.01
2022-02-10 14:12:00,,0825.8,5.00,0.00,22.2,21.5,00.0,31.2,23.9,10.4,0000.0,0001.81,0001.22,0001.00
2022-02-10 14:13:00,,0825.7,5.00,0.00,22.1,21.4,00.0,31.2,23.8,10.4,0000.0,0001.83,0001.22,0000.98
2022-02-10 14:14:00,,0825.7,4.99,0.00,22.1,21.3,00.0,31.1,23.7,10.5,0000.0,0001.80,0001.21,0000.98
2022-02-10 14:15:00,,0825.7,5.01,0.00,22.0,21.2,00.0,31.1,23.7,10.4,0000.0,0001.80,0001.21,0000.98
2022-02-10 14:16:00,,0825.6,5.01,0.00,22.0,21.2,00.0,31.1,23.6,10.5,0000.0,0001.78,0001.19,0000.97
2022-02-10 14:17:00,,0825.7,4.99,0.00,22.0,21.5,00.0,31.1,23.7,10.6,0000.0,0001.96,0001.20,0000.95
2022-02-10 14:18:00,,0825.7,5.00,0.00,22.1,22.3,00.0,31.2,24.0,10.6,0000.0,0002.00,0001.22,0000.93
2022-02-10 14:19:00,,0825.6,5.01,0.00,22.3,23.1,00.0,31.2,24.3,10.5,0000.0,0001.96,0001.20,0000.93
2022-02-10 14:20:00,,0825.6,5.00,0.00,22.4,22.9,00.0,31.2,24.3,10.6,0000.0,0001.95,0001.19,0000.93
2022-02-10 14:21:00,,0825.6,4.99,0.00,22.3,22.6,00.0,31.2,24.2,10.6,0000.0,0002.00,0001.21,0000.92
2022-02-10 14:22:00,,0825.5,4.99,0.00,22.3,22.4,00.0,31.2,24.1,10.8,0000.0,0002.07,0001.23,0000.90
2022-02-10 14:23:00,,0825.5,5.01,0.00,22.3,22.2,00.0,31.2,24.1,10.8,0000.0,0002.03,0001.21,0000.89
2022-02-10 14:24:00,,0825.5,4.99,0.00,22.3,22.1,00.0,31.2,24.1,11.0,0000.0,0001.90,0001.17,0000.89
2022-02-10 14:25:00,,0825.5,5.00,0.00,22.3,22.0,00.0,31.3,24.0,11.1,0000.0,0002.10,0001.18,0000.89
2022-02-10 14:26:00,,0825.5,5.01,0.00,22.3,21.9,00.0,31.3,24.0,11.2,0000.0,0002.45,0001.18,0000.87
2022-02-10 14:27:00,,0825.5,4.99,0.00,22.3,21.8,00.0,31.3,24.0,11.2,0000.0,0002.57,0001.18,0000.86
2022-02-10 14:28:00,,0825.5,5.00,0.00,22.3,21.8,00.0,31.3,24.0,11.4,0000.0,0002.46,0001.18,0000.86
2022-02-10 14:29:00,,0825.5,5.00,0.00,22.3,21.7,00.0,31.3,24.0,11.8,0000.0,0002.42,0001.18,0000.86
2022-02-10 14:30:00,,0825.5,4.99,0.00,22.2,21.7,00.0,31.3,24.0,11.7,0000.0,0003.21,0001.17,0000.84
2022-02-10 14:31:00,,0825.5,5.01,0.00,22.2,21.7,00.0,31.3,24.0,11.4,0000.0,0003.28,0001.18,0000.82
2022-02-10 14:32:00,,0825.4,5.00,0.00,22.3,21.7,00.0,31.3,24.0,11.5,0000.0,0003.33,0001.17,0000.80
2022-02-10 14:33:00,,0825.4,5.00,0.00,22.2,21.7,00.0,31.2,24.0,11.2,0000.0,0004.48,0001.14,0000.79
2022-02-10 14:34:00,,0825.4,5.01,0.00,22.2,21.7,00.0,31.2,24.0,10.9,0000.0,0004.64,0001.14,0000.79
2022-02-10 14:35:00,,0825.4,4.99,0.00,22.3,21.7,00.0,31.2,24.0,11.2,0000.0,0004.64,0001.14,0000.77
2022-02-10 14:36:00,,0825.5,5.01,0.00,22.3,21.7,00.0,31.2,24.0,11.1,0000.0,0004.40,0001.10,0000.77
2022-02-10 14:37:00,,0825.5,4.99,0.00,22.3,21.7,00.0,31.3,24.0,11.4,0000.0,0004.01,0001.08,0000.76
2022-02-10 14:38:00,,0825.4,5.02,0.00,22.3,21.7,00.0,31.2,24.0,10.9,0000.0,0003.85,0001.06,0000.75
2022-02-10 14:39:00,,0825.4,5.00,0.00,22.3,21.7,00.0,31.3,24.0,10.9,0000.0,0003.84,0001.05,0000.74
2022-02-10 14:40:00,,0825.4,5.01,0.00,22.3,21.7,00.0,31.3,24.0,11.1,0000.0,0003.78,0001.00,0000.73
2022-02-10 14:41:00,,0825.4,4.99,0.00,22.3,21.7,00.0,31.3,24.1,11.1,0000.0,0003.14,0001.02,0000.73
2022-02-10 14:42:00,,0825.4,5.01,0.00,22.3,21.7,00.0,31.3,24.0,10.7,0000.0,0002.93,0000.98,0000.73
2022-02-10 14:43:00,,0825.4,4.99,0.00,22.3,21.7,00.0,31.3,24.0,10.6,0000.0,0002.86,0000.96,0000.72
2022-02-10 14:44:00,,0825.4,5.01,0.00,22.3,21.6,00.0,31.3,24.0,10.7,0000.0,0001.79,0000.93,0000.72
2022-02-10 14:45:00,,0825.4,5.00,0.00,22.3,21.6,00.0,31.3,24.1,10.5,0000.0,0001.42,0000.93,0000.71
2022-02-10 14:46:00,,0825.4,4.99,0.00,22.3,21.6,00.0,31.3,24.0,10.4,0000.0,0001.43,0000.93,0000.71
2022-02-10 14:47:00,,0825.4,5.01,0.00,22.3,21.6,00.0,31.3,24.1,10.7,0000.0,0001.43,0000.92,0000.71
2022-02-10 14:48:00,,0825.4,4.99,0.00,22.3,21.7,00.0,31.3,24.1,10.5,0000.0,0001.43,0000.91,0000.70
2022-02-10 14:49:00,,0825.3,5.02,0.00,22.3,21.7,00.0,31.3,24.1,10.6,0000.0,0001.42,0000.90,0000.70
2022-02-10 14:50:00,,0825.3,4.99,0.00,22.3,21.7,00.0,31.3,24.1,10.6,0000.0,0001.48,0000.89,0000.70
2022-02-10 14:51:00,,0825.3,4.99,0.00,22.3,21.6,00.0,31.3,24.1,10.8,0000.0,0001.59,0000.90,0000.70
2022-02-10 14:52:00,,0825.3,5.01,0.00,22.3,21.6,00.0,31.3,24.1,11.0,0000.0,0001.51,0000.88,0000.69
2022-02-10 14:53:00,,0825.3,4.99,0.00,22.3,21.6,00.0,31.3,24.1,11.2,0000.0,0001.50,0000.88,0000.69
2022-02-10 14:54:00,,0825.3,5.00,0.00,22.3,21.7,00.0,31.3,24.0,11.4,0000.0,0001.55,0000.89,0000.69
2022-02-10 14:55:00,,0825.3,5.02,0.00,22.3,21.7,00.0,31.3,24.1,11.6,0000.0,0001.59,0000.90,0000.68
2022-02-10 14:56:00,,0825.3,5.00,0.00,22.3,21.7,00.0,31.3,24.1,10.9,0000.0,0001.60,0000.91,0000.69
2022-02-10 14:57:00,,0825.4,5.00,0.00,22.3,21.7,00.0,31.3,24.1,10.8,0000.0,0001.56,0000.90,0000.69
2022-02-10 14:58:00,,0825.3,5.00,0.00,22.3,21.6,00.0,31.3,24.1,11.0,0000.0,0001.57,0000.90,0000.70
2022-02-10 14:59:00,,0825.3,5.00,0.00,22.3,21.6,00.0,31.3,24.0,11.0,0000.0,0002.13,0000.93,0000.71
